Temp
81 85 86 84 82 83 80 82 78 83 84 89 93 95 98 101 101 98 95 94 94 92 91 91 91 91 92 92 92 92 89 88 87 88 88 84 82 83 83 83 79 81 81 80
76 82 83 80 83 85 84 84 85 86 85 97 97 100 98 98 97 96 95 96 95 92 90 89 88 89 90 90 90 90 88 88 88 87 81 80 79 80 79 78 81 80 80 81
68 79 79 72 80 83 84 87 86 80 87 94 94 94 96 97 99 99 100 100 96 93 90 89 89 89 89 90 90 88 87 88 86 81 77 76 76 77 76 78 80 79 80 81
71 74 62 81 91 89 85 87 89 88 89 92 92 97 99 99 96 96 99 100 99 95 92 90 91 90 91 90 88 87 86 85 78 76 76 75 74 76 79 79 78 79 79 80
67 69 74 80 83 85 82 81 90 89 90 93 95 97 94 98 99 96 98 99 97 95 92 90 91 90 88 87 87 86 85 82 78 77 77 75 75 78 79 78 78 78 79 79
68 63 61 77 88 93 92 75 92 92 90 92 94 86 91 99 101 96 94 94 92 94 92 90 88 88 87 85 85 85 85 83 80 79 78 76 79 78 78 78 78 81 79 79
64 64 72 85 91 93 72 78 94 95 94 93 90 94 93 89 88 89 90 90 91 90 88 85 87 87 85 85 84 85 85 83 81 81 79 79 75 75 75 76 78 78 77 77
65 62 59 86 84 78 86 93 90 91 93 94 94 86 85 86 85 85 86 87 88 85 83 85 86 87 85 82 84 85 84 83 81 81 81 77 74 76 76 77 76 76 76 77
71 70 82 88 85 91 84 85 87 85 88 90 88 84 84 83 83 84 85 86 86 84 81 82 84 84 79 79 81 80 80 80 77 76 78 78 77 75 78 76 79 78 78 76
74 79 83 85 89 85 85 85 86 87 87 87 83 83 82 81 81 81 82 81 83 81 78 78 79 80 79 79 78 78 75 76 75 76 74 76 81 81 81 80 80 79 76 75
73 81 83 84 83 86 83 84 85 87 86 84 82 81 80 79 79 80 80 81 82 79 78 77 78 79 80 79 79 76 77 77 77 78 78 75 73 71 74 72 68 77 77 80
72 82 78 83 83 84 81 82 84 83 82 84 83 82 82 80 80 79 78 79 79 79 78 78 78 77 77 79 80 78 75 73 72 72 73 76 71 63 49 50 47 47 47 58
75 76 84 84 82 84 82 83 84 84 84 82 83 81 79 78 78 71 79 79 78 78 78 77 76 74 76 76 75 74 72 71 71 74 74 72 68 71 72 57 45 44 46 49
77 76 76 79 78 83 83 83 80 83 82 82 81 81 80 77 77 78 78 78 78 76 74 73 75 74 74 71 73 71 70 59 75 76 75 75 74 75 75 68 70 61 51 56
74 79 81 81 81 81 82 82 80 79 80 79 81 80 79 77 76 76 76 78 77 75 71 73 72 71 72 76 75 75 78 80 81 80 79 75 76 75 76 74 69 68 68 58
77 79 79 77 77 79 81 81 79 78 79 79 78 78 78 78 76 76 76 75 75 72 75 76 72 76 76 76 75 77 75 62 69 78 76 77 75 76 73 70 73 73 71 71
71 71 75 75 76 78 79 81 80 80 79 79 78 79 79 78 77 76 76 76 77 77 78 77 76 78 78 78 78 82 81 76 65 81 81 80 79 77 73 73 74 74 74 71
77 77 78 78 76 76 76 77 78 77 76 77 78 78 78 78 75 75 76 77 77 77 78 76 76 76 76 77 77 82 84 82 78 80 79 79 79 77 75 74 72 73 74 66
75 73 76 76 76 75 74 74 74 74 75 77 77 76 76 76 76 76 76 76 75 73 73 74 63 73 75 68 72 84 83 81 80 80 81 67 76 75 74 73 71 73 75 70
66 69 70 71 72 73 71 73 74 73 74 74 74 74 73 74 75 75 76 75 76 78 76 73 75 75 74 68 65 83 82 81 81 79 78 75 74 73 74 67 73 74 73 66
61 63 65 66 66 68 70 71 71 70 71 72 71 71 72 72 74 74 73 75 73 71 74 66 79 80 79 74 74 82 80 79 79 79 77 73 73 72 75 72 68 66 67 62
63 63 63 64 64 65 68 69 69 69 69 69 69 71 70 70 71 72 74 75 75 55 72 79 79 63 74 60 81 77 76 76 76 78 78 77 71 69 73 72 69 66 59 59
63 63 65 65 65 65 68 68 68 68 67 66 65 66 65 68 72 72 68 71 75 65 78 78 59 57 59 76 80 77 76 76 74 72 75 73 73 75 74 73 72 71 64 64
64 64 65 68 69 67 64 65 67 67 67 66 66 67 68 69 70 74 73 59 54 62 76 69 63 55 51 79 79 78 78 76 75 76 73 59 75 74 70 69 64 66 71 71
64 66 67 66 66 66 66 68 69 68 68 67 67 69 69 71 71 70 71 69 54 64 75 51 54 55 77 79 79 79 78 79 78 76 73 72 71 72 76 76 75 74 74 74
68 69 69 68 69 71 72 73 71 71 70 65 69 68 70 70 67 72 72 67 73 63 76 73 75 76 80 80 80 81 79 77 77 79 76 76 75 75 74 75 74 74 74 74
70 58 72 72 74 74 74 71 72 71 70 72 71 70 66 70 68 64 61 73 74 76 76 77 77 71 79 80 79 79 80 79 67 78 78 77 76 76 76 75 74 75 74 73
MSLP
995.95 995.14 994.88 995.00 995.60 995.72 995.65 995.48 994.81 994.78 994.32 994.86 994.94 995.21 995.32 995.36 995.78 996.64 997.35 997.99 998.41 999.28 999.99 1000.74 1001.43 1002.08 1002.70 1003.35 1004.13 1005.05 1006.00 1006.70 1007.35 1007.98 1008.54 1009.30 1009.94 1010.80 1011.35 1011.84 1012.88 1013.22 1013.59 1014.20
996.11 995.92 995.42 995.00 994.92 994.73 994.84 994.91 994.70 994.49 993.93 994.11 994.88 995.04 995.03 995.36 995.86 996.24 996.78 997.30 997.99 998.87 999.76 1000.44 1001.02 1001.61 1002.38 1003.06 1003.95 1004.86 1005.68 1006.42 1007.07 1007.61 1008.54 1009.24 1010.00 1010.65 1011.25 1012.22 1012.50 1013.08 1013.40 1013.63
996.10 996.13 995.83 994.80 993.40 993.74 994.03 994.29 994.48 994.00 994.29 994.62 994.50 994.92 994.99 995.14 995.41 995.62 995.87 996.26 997.28 998.34 999.20 1000.06 1000.81 1001.47 1002.09 1003.15 1004.00 1004.71 1005.35 1006.13 1007.04 1008.14 1008.96 1009.64 1010.06 1010.61 1011.30 1011.68 1012.12 1012.59 1012.94 1013.31
996.28 995.90 994.25 991.24 992.91 993.50 993.59 993.67 993.91 994.10 994.35 994.43 994.77 994.68 994.77 995.10 995.58 995.74 995.61 996.03 996.92 998.08 999.08 999.97 1000.65 1001.40 1001.97 1003.02 1004.02 1004.84 1005.58 1006.26 1007.53 1008.34 1008.99 1009.47 1010.02 1010.42 1010.72 1011.28 1011.84 1012.29 1012.67 1013.10
996.26 994.66 993.67 992.45 992.80 992.54 992.75 992.77 993.18 993.43 993.96 994.32 994.48 994.63 994.25 994.80 995.14 995.46 995.74 996.08 996.79 998.03 998.95 999.77 1000.49 1001.32 1002.04 1003.06 1004.01 1004.73 1005.39 1006.40 1007.31 1008.05 1008.82 1009.67 1010.19 1010.71 1011.34 1011.73 1011.84 1012.14 1012.56 1012.94
996.93 994.84 992.64 993.02 992.45 992.80 992.63 991.62 992.56 992.79 993.07 993.38 993.94 993.57 993.50 994.20 994.39 995.43 996.20 996.70 997.53 998.33 998.99 999.94 1000.80 1001.56 1002.25 1003.38 1004.12 1004.53 1005.22 1006.26 1007.19 1007.74 1008.26 1008.84 1009.42 1010.27 1010.89 1011.75 1011.76 1011.68 1012.37 1012.91
996.96 995.00 993.71 992.99 992.13 992.60 992.10 992.03 991.80 991.97 992.22 992.60 992.84 993.24 994.34 995.24 995.81 996.37 997.02 997.76 998.15 999.13 999.54 1000.48 1001.17 1001.75 1002.58 1003.40 1003.81 1004.30 1004.94 1005.71 1006.45 1006.69 1007.06 1007.84 1008.05 1008.88 1010.69 1011.56 1011.67 1011.93 1012.34 1013.09
996.46 995.21 993.71 993.38 993.21 992.57 992.41 991.97 992.38 992.41 992.29 992.52 993.17 994.88 995.69 996.44 997.04 997.46 997.93 998.80 999.24 1000.02 1000.60 1001.14 1001.71 1002.16 1002.81 1003.46 1004.31 1004.66 1005.54 1006.19 1006.81 1007.48 1006.83 1008.53 1009.07 1008.16 1010.20 1011.23 1011.81 1011.92 1012.28 1012.82
994.40 993.66 993.44 993.37 993.21 992.85 993.58 993.32 993.27 993.46 993.45 993.63 994.36 995.77 996.57 997.32 998.07 998.55 999.02 999.74 1000.36 1000.96 1001.49 1001.95 1002.59 1002.94 1003.54 1004.40 1004.82 1005.58 1006.09 1006.77 1007.43 1007.95 1007.85 1008.99 1008.51 1009.23 1009.90 1010.88 1011.10 1011.51 1011.77 1012.14
993.96 993.35 993.26 993.58 993.40 993.94 994.10 993.98 993.94 994.01 994.16 994.67 995.54 996.73 997.61 998.60 999.30 999.69 1000.05 1000.86 1001.48 1002.00 1002.64 1003.13 1003.50 1003.92 1004.06 1005.02 1005.53 1006.03 1006.78 1007.64 1008.54 1008.08 1008.66 1008.46 1007.96 1009.44 1009.12 1009.75 1010.39 1011.03 1011.50 1011.99
993.68 993.16 993.26 993.53 993.96 993.94 994.27 994.47 994.47 994.72 994.97 995.62 996.27 997.30 998.22 999.40 1000.26 1000.65 1000.60 1001.34 1001.92 1002.46 1003.30 1004.00 1004.44 1004.86 1005.26 1005.60 1005.94 1006.52 1007.16 1007.67 1007.89 1007.93 1008.95 1009.66 1009.60 1010.06 1009.97 1010.31 1011.42 1011.48 1011.67 1011.72
993.26 993.22 993.59 992.94 993.70 994.25 994.47 994.85 995.09 994.94 995.63 996.56 997.63 997.71 998.38 999.20 1000.02 1001.04 1001.74 1002.25 1002.63 1003.16 1003.85 1004.61 1005.34 1005.82 1006.26 1006.41 1006.56 1006.82 1007.35 1008.07 1008.65 1009.67 1008.34 1009.21 1010.53 1011.08 1011.44 1011.54 1012.18 1012.08 1012.23 1012.64
994.85 994.92 993.76 993.62 994.22 994.58 994.76 995.42 995.87 996.38 996.20 996.97 998.22 998.79 999.47 999.86 1001.08 1001.48 1002.13 1002.70 1003.25 1004.00 1004.18 1004.83 1005.61 1006.55 1006.92 1007.22 1007.75 1007.76 1007.99 1008.28 1007.11 1009.01 1009.42 1009.33 1010.13 1010.49 1011.08 1012.70 1012.68 1012.74 1013.05 1012.96
996.12 995.61 994.61 994.24 994.39 994.94 995.36 995.96 996.71 997.58 998.17 998.29 999.02 999.84 1000.12 1000.71 1001.57 1001.83 1002.52 1003.31 1003.94 1004.70 1004.87 1005.53 1005.84 1006.05 1007.10 1008.04 1008.02 1008.02 1007.47 1008.17 1007.70 1007.84 1008.88 1009.35 1009.32 1009.84 1010.49 1011.58 1011.81 1013.44 1013.20 1013.88
995.89 995.54 994.74 994.96 995.23 995.67 996.21 996.70 997.35 998.10 998.74 999.28 999.95 1000.32 1000.95 1001.55 1002.15 1002.80 1003.57 1004.00 1004.58 1005.33 1005.99 1006.48 1005.54 1006.96 1007.00 1006.79 1007.54 1007.69 1007.62 1007.55 1007.54 1007.84 1008.31 1008.52 1008.90 1009.66 1010.01 1010.62 1011.39 1012.32 1013.38 1014.88
995.57 995.36 995.72 995.88 996.15 996.55 996.60 997.13 997.69 998.70 999.56 1000.10 1000.60 1001.08 1001.74 1002.28 1002.89 1003.64 1004.26 1004.80 1004.92 1006.01 1005.94 1005.76 1005.74 1006.81 1006.86 1007.68 1007.93 1007.65 1007.94 1008.26 1007.92 1007.92 1008.28 1008.37 1008.94 1009.16 1009.51 1010.23 1010.45 1011.77 1012.65 1013.20
996.06 995.83 995.94 996.27 996.62 997.12 997.49 997.84 998.43 999.38 1000.12 1000.66 1001.17 1001.63 1002.11 1002.59 1003.23 1003.95 1004.38 1004.75 1005.31 1005.50 1005.56 1005.85 1006.52 1006.74 1007.07 1007.66 1007.58 1007.05 1006.70 1007.58 1008.00 1007.67 1007.76 1007.91 1008.04 1008.53 1009.43 1009.82 1010.20 1011.18 1011.71 1012.52
997.01 997.10 997.20 997.22 997.41 997.95 998.73 999.25 999.88 1000.55 1001.09 1001.61 1001.88 1002.25 1002.74 1002.97 1003.57 1003.94 1004.29 1004.91 1005.30 1005.48 1005.64 1006.40 1006.94 1007.20 1007.18 1007.57 1007.74 1006.81 1006.54 1006.72 1007.50 1007.38 1007.42 1007.77 1008.04 1008.57 1009.01 1009.54 1010.11 1010.72 1011.47 1013.24
998.09 998.09 997.97 998.32 998.98 999.34 1000.04 1000.59 1001.20 1001.77 1002.21 1002.43 1002.72 1003.12 1003.60 1003.70 1003.97 1004.20 1004.59 1005.01 1005.39 1005.74 1006.38 1006.89 1007.72 1007.13 1007.20 1007.91 1007.75 1007.02 1006.75 1006.93 1007.14 1007.36 1007.46 1008.10 1008.38 1008.72 1008.99 1009.57 1010.17 1010.70 1011.36 1013.02
999.62 999.77 999.82 1000.20 1000.78 1001.15 1001.76 1002.10 1002.36 1002.90 1003.18 1003.48 1003.64 1003.87 1004.12 1004.30 1004.36 1004.41 1004.72 1004.95 1005.38 1005.67 1006.69 1007.22 1007.00 1007.10 1007.32 1008.24 1008.10 1006.94 1006.86 1006.94 1007.09 1007.39 1007.61 1007.99 1008.41 1008.87 1009.12 1009.41 1009.92 1010.56 1011.82 1013.31
1001.42 1001.42 1001.72 1002.02 1002.50 1002.87 1003.03 1003.27 1003.30 1003.71 1004.14 1004.26 1004.28 1004.50 1004.72 1004.90 1004.74 1004.90 1005.09 1005.07 1006.33 1007.00 1006.88 1007.56 1006.92 1006.95 1007.26 1007.76 1007.65 1006.75 1006.98 1007.17 1007.27 1007.67 1007.91 1008.41 1008.78 1009.02 1009.38 1010.12 1010.90 1011.84 1012.68 1013.51
1002.26 1002.58 1002.81 1003.19 1003.66 1004.02 1004.19 1004.14 1004.37 1004.60 1004.64 1004.91 1004.97 1005.14 1005.15 1005.17 1005.25 1005.39 1005.43 1005.22 1006.24 1007.49 1006.95 1006.72 1006.98 1008.24 1007.78 1008.20 1006.87 1006.99 1007.24 1007.43 1007.58 1007.64 1007.74 1008.10 1008.72 1009.36 1009.61 1010.44 1011.27 1012.25 1013.29 1013.74
1003.00 1003.82 1004.12 1003.96 1004.14 1004.60 1004.88 1005.02 1005.10 1005.30 1005.52 1005.54 1005.65 1005.79 1005.92 1005.73 1005.47 1005.26 1005.71 1006.27 1006.40 1007.18 1006.60 1006.81 1008.31 1008.50 1008.41 1007.56 1006.94 1007.12 1007.30 1007.50 1007.71 1008.15 1008.36 1008.60 1008.99 1009.34 1009.94 1010.51 1011.19 1012.01 1012.99 1013.20
1004.72 1004.94 1004.64 1004.54 1004.68 1005.02 1005.31 1005.66 1005.76 1005.91 1005.93 1006.06 1006.31 1006.52 1006.17 1005.78 1006.10 1006.04 1006.24 1007.13 1007.43 1007.57 1006.79 1008.05 1008.47 1008.51 1008.59 1007.14 1007.08 1007.17 1007.40 1007.72 1007.95 1008.33 1009.20 1009.79 1009.38 1009.98 1010.74 1011.38 1012.12 1012.64 1012.68 1012.76
1005.10 1004.88 1004.80 1004.84 1004.90 1005.18 1005.46 1005.65 1005.71 1005.74 1006.00 1006.41 1006.70 1006.77 1006.56 1006.33 1005.90 1006.57 1006.73 1007.13 1007.93 1007.54 1007.36 1008.78 1008.74 1008.54 1007.62 1007.45 1007.40 1007.47 1007.50 1007.47 1007.84 1008.61 1009.36 1009.84 1010.23 1010.07 1010.02 1010.52 1010.92 1011.46 1012.10 1012.52
1004.55 1004.60 1004.98 1005.12 1005.01 1004.81 1004.97 1005.29 1005.40 1005.58 1005.88 1006.37 1006.52 1006.95 1006.84 1006.96 1007.30 1006.75 1006.84 1007.04 1007.16 1007.67 1007.15 1008.21 1008.11 1008.14 1007.66 1007.64 1007.69 1007.72 1007.69 1008.51 1008.47 1008.39 1008.90 1009.47 1009.78 1010.13 1010.42 1010.65 1011.28 1011.86 1012.19 1012.72
1005.19 1005.11 1004.92 1004.84 1004.88 1004.93 1005.03 1005.74 1005.45 1005.72 1005.82 1005.88 1006.29 1006.83 1007.29 1007.04 1007.30 1007.32 1007.23 1007.23 1007.08 1007.06 1007.30 1007.46 1007.76 1008.29 1007.90 1007.58 1007.79 1007.90 1007.91 1008.16 1008.70 1008.77 1008.93 1009.25 1009.58 1009.96 1010.40 1010.83 1011.36 1011.80 1012.30 1012.82
Wind_Speed
23 22 19 21 22 19 24 24 23 21 25 22 19 14 15 11 11 9 10 13 14 14 13 14 14 14 14 14 13 13 13 13 13 12 13 12 10 12 13 11 8 9 9 9
21 21 20 19 18 21 26 24 24 24 20 11 16 16 9 10 12 13 13 15 14 15 15 16 16 15 14 13 13 12 12 11 10 10 6 7 9 11 8 10 11 9 9 10
16 21 21 25 31 29 25 20 20 22 16 15 15 17 15 14 14 13 15 14 15 16 15 14 14 13 13 11 11 12 11 9 7 7 8 8 9 9 10 12 11 10 10 9
13 16 27 18 23 26 25 22 22 21 19 14 16 15 17 11 12 15 17 14 10 12 13 13 13 13 13 13 11 11 10 9 9 9 10 10 9 11 12 10 10 9 9 9
12 18 13 24 4 17 20 25 25 23 21 20 19 17 20 17 18 18 14 11 9 11 13 14 14 14 15 14 13 12 12 11 10 10 11 11 10 9 8 8 8 9 8 10
11 22 29 17 13 14 16 20 19 22 23 22 19 18 13 17 10 8 8 8 11 13 15 15 15 15 14 13 13 12 11 11 11 11 13 13 12 11 9 8 9 9 9 9
17 17 13 13 16 13 20 8 17 19 21 22 17 15 2 3 5 6 7 10 14 14 15 15 15 15 15 14 13 13 13 13 13 15 16 16 15 13 10 9 9 9 8 7
18 22 26 1 5 16 12 10 5 5 8 13 14 6 5 7 9 11 14 14 15 15 15 14 13 12 13 12 9 9 7 7 9 10 10 7 10 13 12 10 9 8 8 8
18 16 4 23 18 10 4 4 2 4 4 8 10 9 12 13 15 15 17 15 15 16 16 14 12 11 13 10 10 8 6 5 6 8 10 12 12 11 10 10 9 9 8 6
16 20 19 14 15 10 9 8 4 4 9 13 15 16 17 16 16 16 16 15 15 16 15 14 13 13 13 10 8 8 8 5 7 9 7 10 10 9 9 9 9 7 6 5
17 14 14 13 12 9 6 7 9 12 15 18 23 22 22 19 16 14 16 15 14 15 14 13 12 12 10 9 8 8 6 7 8 9 8 5 5 4 1 7 2 5 4 4
13 15 14 17 15 12 12 13 15 21 22 21 21 23 22 19 17 15 14 14 14 15 15 13 12 11 9 7 5 7 8 6 4 2 8 7 6 5 16 13 6 7 7 3
11 12 14 5 12 14 15 16 17 19 23 24 19 18 19 18 15 16 15 15 15 14 14 14 13 11 8 7 5 5 7 3 7 7 6 6 6 7 8 7 11 11 6 12
15 11 9 16 16 17 20 19 18 20 18 18 18 16 16 16 13 14 13 12 13 11 12 9 10 12 9 5 6 5 7 2 4 6 7 7 7 7 6 6 7 7 9 9
14 15 9 13 18 19 21 22 22 18 18 17 14 15 13 13 12 12 10 11 11 10 7 7 13 7 5 7 4 5 4 4 3 5 6 5 6 5 6 7 8 10 11 9
18 14 17 19 21 22 23 22 20 17 15 13 13 12 12 12 12 10 9 8 10 8 8 9 11 6 6 5 5 6 6 4 1 5 6 7 6 6 5 5 9 10 10 11
20 23 24 22 19 19 18 17 16 15 13 13 13 12 12 12 11 9 8 7 6 8 8 8 8 7 6 3 4 3 5 7 5 3 4 4 4 8 8 8 9 9 9 10
17 18 18 19 19 18 18 17 15 14 12 12 11 10 9 8 8 7 6 7 8 8 9 8 6 6 5 3 3 1 1 3 5 5 5 4 4 4 6 7 8 10 10 11
19 19 21 21 18 18 16 15 13 13 11 9 8 8 6 6 6 8 8 8 8 9 7 8 5 4 6 5 6 2 2 3 4 3 2 5 6 5 7 6 8 10 11 12
21 20 20 19 17 16 13 12 12 10 9 7 6 6 6 5 6 7 6 6 4 7 8 8 5 5 5 5 5 3 3 3 3 4 4 5 5 6 6 8 10 9 10 10
15 16 16 15 14 12 11 8 9 9 7 6 5 4 4 4 4 6 7 7 7 6 7 3 0 3 3 3 6 4 4 4 4 3 4 4 5 6 7 7 8 8 10 8
14 13 13 13 11 11 9 9 9 8 7 7 6 4 4 5 5 4 2 0 7 5 5 5 4 5 5 5 3 4 4 4 3 3 3 2 6 7 9 10 10 10 8 7
13 11 10 12 13 12 10 9 9 9 8 8 7 6 5 4 2 4 6 5 7 4 4 5 7 5 5 7 4 4 4 3 3 5 2 4 6 8 8 10 11 10 6 5
12 11 12 11 11 11 11 9 9 8 8 8 7 5 3 5 5 3 7 8 9 4 3 7 6 5 10 5 5 6 6 6 5 6 7 6 6 9 9 9 10 10 11 10
10 11 11 12 11 9 9 8 8 8 8 7 6 5 4 4 4 6 5 6 6 7 9 7 3 5 6 5 5 5 5 6 7 9 6 7 6 6 8 8 9 9 9 8
9 8 8 9 7 7 6 6 7 6 6 5 5 4 4 4 3 2 4 4 6 2 7 8 8 6 3 4 4 3 5 7 6 5 8 8 8 6 7 7 9 9 8 7
6 2 5 5 5 5 6 6 5 5 4 4 5 6 4 2 6 4 2 4 6 5 6 6 6 4 4 4 4 4 4 5 3 6 6 6 6 6 7 7 8 7 7 7
Wind_Direction
232 256 215 203 209 205 223 230 231 231 233 231 248 234 248 248 265 262 235 220 198 197 189 189 190 191 193 192 192 192 198 205 210 214 214 211 201 212 206 195 185 186 188 197
226 229 245 236 231 220 217 228 238 246 253 225 236 247 249 242 250 249 235 231 204 192 188 190 187 185 188 183 180 182 190 199 202 202 176 188 183 195 187 178 185 187 187 194
224 225 231 240 230 226 233 230 234 238 241 249 232 247 245 249 262 259 255 234 203 194 188 185 184 177 167 172 168 176 179 181 172 151 155 160 166 173 172 194 187 181 185 196
226 213 223 252 225 226 241 236 232 241 240 234 238 254 252 237 263 271 263 262 211 190 177 172 170 165 152 155 156 161 160 141 140 150 160 161 160 171 178 174 174 179 186 192
225 224 233 246 195 226 220 233 232 233 230 238 238 244 245 253 251 253 262 239 195 176 165 159 156 153 142 143 154 150 142 148 152 155 151 148 163 167 162 169 174 181 189 195
212 237 234 234 236 212 232 239 228 227 230 226 230 235 247 247 263 231 232 178 171 165 145 144 139 141 137 138 145 137 132 132 143 159 158 159 159 156 162 185 182 183 191 196
227 247 251 249 244 190 223 236 221 227 221 226 224 229 264 88 122 141 158 158 137 144 132 130 135 133 136 144 131 130 141 153 164 169 165 171 160 145 161 188 172 199 178 183
222 228 232 225 181 220 233 234 264 267 273 242 235 122 132 111 118 129 127 133 122 122 121 120 126 132 126 101 103 104 115 146 162 175 153 152 156 131 160 178 177 178 181 192
209 219 309 208 233 213 272 290 254 266 230 217 140 146 132 125 124 123 121 120 114 110 103 95 97 105 100 98 99 96 101 126 152 166 145 171 145 143 159 176 184 196 192 199
236 209 217 224 238 252 270 261 252 197 143 140 132 130 123 119 118 113 109 108 105 98 89 85 83 79 88 95 96 100 101 140 185 165 164 169 149 167 170 178 198 194 185 200
244 246 202 215 229 242 224 181 149 138 136 136 135 129 125 122 118 113 108 106 101 96 91 86 82 81 84 94 107 112 134 153 163 150 164 146 54 41 1 68 6 206 185 210
236 210 214 209 201 181 158 157 152 141 134 135 136 131 127 121 120 110 98 96 93 94 95 94 87 84 78 80 102 126 128 107 89 333 144 148 156 98 46 50 35 57 64 4
282 310 229 228 167 163 149 146 147 140 129 128 123 121 117 116 112 111 116 115 113 113 113 111 100 91 90 90 103 134 125 140 120 177 167 154 151 165 144 78 64 64 71 94
262 261 207 171 162 153 143 128 120 121 124 118 123 122 118 117 127 117 117 117 117 118 120 119 114 117 122 121 126 94 73 80 140 147 172 176 162 154 154 168 145 114 74 108
225 208 181 148 141 140 135 136 130 123 119 117 117 118 119 121 120 116 117 118 117 117 121 147 112 120 127 112 126 142 172 152 161 151 162 142 141 164 178 166 140 138 127 134
183 142 138 135 135 137 134 128 120 118 119 118 116 112 115 116 113 115 127 137 144 154 141 116 107 118 107 139 167 152 134 75 166 158 139 173 175 192 162 157 158 153 166 151
166 153 140 130 128 126 122 114 114 117 122 117 118 126 126 120 124 134 133 132 145 140 122 112 115 111 121 161 231 160 138 131 358 223 190 189 183 173 182 188 168 166 166 149
126 126 127 118 112 107 101 98 96 95 92 95 101 106 116 113 108 113 125 142 145 135 108 113 125 131 115 114 298 71 144 143 169 231 171 198 172 187 195 171 180 163 149 121
110 104 99 96 98 97 99 96 92 90 87 89 100 102 105 106 115 112 127 143 143 138 122 114 136 107 94 62 300 197 171 169 161 189 192 105 175 189 168 157 155 171 149 151
91 88 85 85 86 90 95 91 92 88 81 89 105 117 123 119 123 124 135 147 62 76 134 139 135 110 117 133 267 190 144 149 165 153 173 181 162 181 164 164 157 147 134 141
88 84 84 84 83 80 80 85 94 93 90 87 107 130 143 147 145 148 169 177 123 134 99 142 338 134 148 143 223 184 167 190 185 170 199 168 167 154 135 117 114 131 143 142
81 84 85 88 90 90 82 85 88 87 82 85 83 107 129 136 141 138 30 127 133 178 184 161 150 47 80 256 186 145 163 177 186 202 192 174 137 162 147 148 144 138 135 151
71 84 98 92 89 90 88 86 83 82 84 84 79 97 114 113 130 159 139 136 139 165 209 103 109 149 205 226 153 155 148 164 141 91 124 105 133 128 142 148 138 146 143 154
93 93 92 95 97 99 94 96 99 90 89 87 80 87 122 124 102 61 102 78 87 178 82 109 137 202 259 123 125 131 126 126 127 110 100 45 103 130 136 136 146 162 177 186
101 98 99 100 94 90 96 106 115 107 99 101 109 111 100 47 50 132 134 109 137 232 125 116 138 279 222 136 125 120 125 124 112 127 126 139 151 182 148 164 153 156 158 160
71 71 74 60 63 69 78 76 72 60 102 92 83 57 53 82 58 151 127 137 146 181 148 154 172 204 131 141 138 129 122 122 167 124 137 146 132 136 151 154 138 159 160 158
88 0 106 96 75 64 49 46 61 90 77 85 106 132 144 113 113 127 101 143 150 168 153 161 170 194 210 181 169 170 176 150 59 157 144 141 150 149 146 151 159 158 162 162